Showing default

AEROCUBE 8D, 41852

Orbit data source: Space-Track

AEROCUBE 8D, 41852 is a payload satellite owned by AERO (US) in SSO that was launched on Fri, 11 Nov 2016 UTC via an ATLAS V 401 launch vehicle from the Air Force Western Test Range (AFWTR). Payload-class satellites include a variety of spacecraft equipped with specific instruments for various scientific and technological missions. These include communications satellites like Starlink; space stations such as the ISS; scientific satellites like the Hubble; Earth observation satellites from companies like Planet Labs, Umbra, and HawkEye 360; GPS; miniature CubeSats for education and research; and military/defense satellites.

Loading next visibility...
Identifier
41852, 2016-067E
Orbit
SSO
Country
Flag of USUS
Related business
Manufacturer
AERO
Mission
Operational Defense Technology
Bus & Motor
CUBESAT 1.5U, Unknown motor
Mass
2 kg wet, 2 kg dry
Launch date (UTC)
2016-11-11 (10 years ago)
Launch vehicle
ATLAS V 401
Launch site
Air Force Western Test Range (AFWTR)
Object type
Payload
Rocket body
Debris
Shape & HBR
Box, 0.1 m
Radar Cross Section
0.025 m², Medium (>0.1 m² and < 1m²)

Expand to show TLE details & history
Last TLE update: 2 days ago

TLE from 2 days ago
0 AEROCUBE 8D
1 41852U 16067E   26171.17504018  .00006264  00000-0  25856-3 0  9990
2 41852  98.0674  41.5731 0004845 116.1739 243.9995 15.24432262526528
Epoch: 2026-06-20T04:12Z
TLE epoch observation values (Epoch: 2026-06-20T04:12:03.471Z)
Latitude
-0.00006°
Longitude
70.16521°
Altitude
497.028 km
Speed
7.615 km/s
True Right ascension
02h 46m 17s
True Declination
0° 00' 00"
Sunlit
Object was in daylight at epoch
Visualization orbit readout
Latitude
Unknown
Longitude
Unknown
Altitude
Unknown
Speed
Unknown
Apparent Right ascension
Unknown
Apparent Declination
Unknown
Sunlit
N/A
Visualization observer readout
Local Sidereal Time
21:36:57
Azimuth
Unknown
Elevation
Unknown
Doppler factor
Unknown
Orbital elements
Apogee altitude
492.808 km
Perigee altitude
486.153 km
Semi-major axis
6,867.617 km
Eccentricity
0.00048
Inclination
98.0674°
RAAN
41.5731°
Arg. of periapsis
116.1739°
True anomaly
243.94961°
Mean anomaly
243.9995°
Eccentric anomaly
243.97456°
Mean motion
3.81359 °/min
Orbital period
94.4 mins
BSTAR
0.00025856
Loading maneuver chart data...
Computing Atmospheric mass density...
Loading historical data...
Loading historical data...
Loading historical data...
Loading historical data...
Loading historical data...
Loading historical data...
Loading historical data...

Documentation

Showing up to 5 results
|